Temperature
17 16 16 16 16 16 16 16 16 17 17 17 17 17 17 16 16 16 16 16 16 16 16 16 16 16 15 15 15 15 15 15 15 15 15 15 15 15 15 15 15 15 14
17 16 16 16 16 16 16 16 16 16 17 16 17 16 16 16 16 16 16 16 16 15 16 16 16 15 15 15 15 15 15 15 15 15 15 15 15 15 15 15 15 15 15
17 16 16 16 16 16 16 16 16 16 16 16 16 16 16 16 16 16 16 16 16 15 15 16 15 15 15 15 15 15 15 15 15 15 15 15 15 15 15 15 15 15 15
17 16 16 16 16 16 16 16 16 16 16 16 16 16 16 16 16 16 16 16 15 15 15 15 15 15 15 15 15 15 15 15 15 15 14 14 14 14 14 14 14 15 15
17 16 16 16 16 16 16 16 16 16 16 16 16 16 16 16 15 15 16 15 15 15 15 15 15 15 15 15 15 15 15 15 14 14 14 14 14 14 14 14 14 14 14
16 16 16 16 15 16 16 16 16 16 16 16 16 16 15 15 15 15 15 15 15 15 15 15 15 15 15 15 15 15 15 15 14 14 14 14 14 14 14 14 14 14 14
16 16 15 15 15 15 16 16 16 16 16 16 16 15 15 15 15 15 15 15 15 15 15 15 15 15 15 15 15 15 14 14 14 14 14 14 14 14 14 14 14 14 14
15 15 15 15 15 15 15 15 16 16 16 16 16 15 15 15 15 15 15 15 15 15 15 15 15 15 15 14 14 14 14 14 14 14 14 14 14 14 14 14 14 14 14
15 15 15 15 15 15 15 15 15 15 15 15 15 15 15 15 15 15 15 15 15 15 14 14 14 14 14 14 14 14 14 14 14 14 14 14 14 14 14 14 14 14 14
14 14 14 14 14 14 15 15 15 15 15 15 15 15 15 15 15 15 15 15 14 14 14 14 14 14 14 14 14 14 14 14 14 14 14 14 14 14 14 13 13 14 14
14 14 14 14 14 14 14 15 15 15 15 15 15 15 15 15 15 15 14 14 14 14 14 14 14 14 14 14 14 14 14 14 14 14 14 14 14 14 13 13 13 13 13
14 14 14 14 14 14 14 14 14 14 14 15 15 14 14 14 14 14 14 14 14 14 14 14 14 14 14 14 13 13 14 14 14 13 13 13 13 13 13 13 13 13 13
14 13 13 13 13 13 14 14 14 14 14 14 14 14 14 14 14 14 14 14 14 14 14 14 13 13 13 13 13 13 13 13 13 13 13 13 13 13 13 13 13 13 13
13 13 13 13 13 13 13 13 13 14 14 14 14 14 14 14 14 14 14 14 14 13 13 13 13 13 13 13 13 13 13 13 13 13 13 13 13 13 13 13 13 13 13
13 13 13 13 13 13 13 13 13 13 13 13 13 13 13 13 13 13 13 13 13 13 13 13 13 13 13 13 13 13 13 13 13 13 13 13 13 13 13 13 13 13 12
12 12 12 12 12 12 12 12 13 13 13 13 13 13 13 13 13 13 13 13 13 13 13 13 13 13 13 12 12 12 12 12 12 12 13 12 12 12 12 12 12 12 12
12 12 12 12 12 12 12 12 12 12 12 12 12 12 12 13 12 13 13 13 12 12 12 12 12 12 12 12 12 12 12 12 12 12 12 12 12 12 12 12 12 12 12
12 11 11 11 11 11 11 11 12 12 12 12 12 12 12 12 12 12 12 12 12 12 12 12 12 12 12 12 12 12 12 12 12 12 12 12 12 12 12 12 12 12 12
11 11 11 11 11 11 11 11 11 12 12 12 12 12 12 12 12 12 12 12 12 12 12 12 12 12 12 12 12 12 12 12 12 12 12 12 12 12 12 11 11 11 11
11 11 11 11 11 11 11 11 11 11 11 11 11 11 11 11 11 11 11 11 11 11 11 11 11 11 11 11 11 11 11 11 11 11 11 11 11 11 11 11 11 11 11
10 10 10 10 10 10 10 10 10 10 11 11 11 11 11 11 11 11 11 11 11 11 11 11 11 11 11 11 11 11 11 11 11 11 11 11 11 11 11 11 11 11 11
10 10 10 10 10 10 10 10 10 10 10 10 10 10 10 10 11 11 11 11 11 11 11 11 11 11 11 10 10 10 10 10 10 10 10 11 11 10 10 11 10 10 10
9 9 9 9 9 9 10 10 10 10 10 10 10 10 10 10 10 10 10 10 10 10 10 10 10 10 10 10 10 10 10 10 10 10 10 10 10 10 10 10 10 10 10
9 9 9 9 9 9 9 9 9 9 9 10 10 10 10 10 10 10 10 10 10 10 10 10 10 10 10 10 10 10 10 10 10 9 9 10 10 10 10 10 10 9 9
8 9 9 9 9 9 9 9 9 9 9 9 9 9 9 9 9 9 10 10 10 10 10 10 10 10 10 10 10 10 9 9 9 9 9 9 9 9 9 9 9 9 9
8 8 8 8 8 8 8 8 8 9 9 9 9 9 9 9 9 9 9 9 9 10 10 10 9 9 9 9 9 9 9 9 9 9 9 9 9 9 9 9 9 9 9
Wind_Speed
5 7 12 15 16 16 16 16 16 17 17 17 18 17 17 16 16 16 16 16 16 16 17 17 18 18 18 18 18 18 18 18 18 17 17 17 18 18 18 18 17 17 19
8 11 14 15 16 16 16 16 16 16 16 17 17 17 16 16 15 16 16 15 15 16 16 16 17 18 18 17 17 17 17 17 17 17 16 16 17 17 17 17 17 16 18
10 12 14 16 17 16 16 16 16 16 16 16 16 16 16 15 15 15 15 15 15 15 16 16 17 17 17 17 16 16 16 16 16 15 15 14 15 16 17 17 17 17 17
10 13 14 16 17 16 16 15 16 16 15 15 15 15 15 15 14 15 15 15 15 15 15 15 16 16 16 15 15 15 15 15 14 14 13 13 13 15 16 16 16 16 17
9 12 14 17 17 17 16 15 15 15 15 15 14 14 14 14 14 14 14 14 14 14 14 14 15 15 15 14 14 15 15 15 14 14 13 13 13 14 15 16 16 16 16
8 11 15 17 16 16 16 15 15 15 14 14 14 14 14 13 14 14 14 14 14 14 13 13 14 14 14 14 14 14 14 14 14 13 13 12 12 13 14 14 15 16 15
8 10 14 16 16 15 15 15 14 14 14 14 14 14 14 14 13 13 14 14 13 13 13 13 13 13 13 13 13 13 13 13 13 12 11 10 11 13 14 14 15 15 15
9 9 12 14 14 14 14 14 14 13 13 13 13 12 13 14 13 13 13 13 13 12 12 13 13 12 12 12 12 12 12 12 11 10 9 9 11 13 14 14 14 14 14
7 7 9 11 12 13 13 12 13 13 13 12 12 12 13 13 13 13 13 13 13 12 12 12 12 12 11 11 12 12 12 12 10 8 8 8 11 13 13 13 13 13 13
6 6 6 9 10 11 11 11 12 12 12 12 12 12 13 13 12 12 12 12 12 12 12 12 12 11 11 11 11 12 12 11 10 8 7 8 11 12 12 12 12 12 12
7 5 6 7 8 9 9 10 11 11 12 12 11 12 12 11 11 10 10 11 11 11 11 11 11 11 11 11 10 11 11 9 9 7 7 8 10 10 11 10 10 10 10
9 7 6 6 7 8 8 8 8 8 10 10 10 11 10 10 10 9 10 10 10 10 11 11 11 10 10 9 9 9 8 8 7 6 7 8 8 9 9 9 9 9 9
9 7 6 6 7 7 6 7 7 7 8 9 9 10 10 9 9 8 8 8 8 9 8 9 9 8 9 9 8 7 7 6 6 5 6 7 7 7 8 8 8 7 7
8 7 6 6 6 6 7 6 6 6 6 7 8 10 9 7 6 7 6 7 7 7 7 7 7 8 8 8 8 7 6 5 5 4 5 6 6 6 6 7 7 6 6
8 7 7 6 7 6 6 5 6 6 6 7 8 8 9 7 5 6 6 6 6 7 7 6 6 7 7 7 6 6 5 4 4 4 4 5 4 4 4 5 5 5 5
8 8 7 7 7 6 5 4 4 6 7 7 7 8 8 8 7 6 5 5 5 6 7 7 6 6 5 5 5 5 4 4 4 3 3 3 4 3 3 4 4 4 4
8 8 8 7 6 6 6 5 5 6 7 6 6 8 8 8 8 7 5 5 5 7 8 7 6 6 5 4 3 4 3 3 3 3 2 2 2 2 3 3 3 4 4
6 7 8 7 7 7 5 5 5 6 6 6 6 7 8 8 8 7 5 4 6 7 7 5 4 3 3 3 2 2 3 3 3 2 2 2 2 1 2 3 3 3 4
6 7 7 7 7 6 6 5 4 5 5 5 6 6 7 8 8 8 6 6 7 6 5 4 3 3 3 3 2 2 2 2 2 3 3 2 2 2 2 2 3 3 3
5 6 6 6 6 6 5 4 4 3 3 4 5 5 6 7 8 7 6 6 7 5 3 3 4 3 3 3 3 3 2 2 3 3 2 2 2 2 3 3 2 2 2
4 5 6 6 6 6 5 4 4 3 2 2 3 4 6 6 7 7 5 5 6 4 4 5 4 4 3 2 3 2 2 2 3 3 3 3 3 3 4 3 3 2 2
4 4 5 6 6 6 5 4 3 3 2 2 2 3 5 6 6 6 6 4 5 4 5 5 4 3 2 2 2 2 1 2 2 2 2 2 2 3 4 3 3 2 2
3 4 5 5 5 5 5 4 4 3 3 2 2 2 3 5 6 6 6 6 5 5 5 5 5 5 3 1 1 3 3 2 0 2 3 2 2 2 2 3 3 2 2
3 3 4 5 5 6 6 6 7 5 4 3 3 2 2 4 5 6 6 6 5 4 5 5 4 3 5 3 1 2 2 3 2 0 2 2 2 2 2 2 2 1 1
2 3 4 5 5 5 6 7 7 5 4 3 3 4 3 2 4 5 6 5 5 4 4 5 4 4 4 4 3 2 2 2 2 2 1 2 2 2 1 1 1 1 1
1 2 3 4 5 5 6 6 7 7 6 6 4 4 3 2 2 3 5 5 5 4 5 5 5 5 4 4 3 3 3 3 2 2 2 1 1 1 1 2 1 1 1
Wind_Direction
171 174 166 152 148 143 138 133 130 127 127 127 125 124 122 121 120 118 116 113 110 107 104 102 101 98 96 94 92 89 87 85 84 81 80 82 83 83 82 79 76 74 75
155 166 161 152 148 144 139 136 133 129 128 128 127 127 125 123 122 121 118 116 113 110 106 103 102 100 98 96 92 89 87 86 84 80 78 80 83 85 84 82 80 78 76
145 157 156 153 148 143 138 136 136 134 131 130 130 129 127 125 123 123 121 117 114 110 106 104 102 101 99 97 94 92 89 86 83 78 75 77 84 88 87 83 83 81 79
145 152 153 151 148 144 140 136 137 138 137 134 132 131 129 128 124 123 121 118 115 111 107 105 104 103 100 99 97 95 92 89 82 77 73 75 83 88 88 85 84 83 81
141 148 151 149 146 145 142 139 137 140 139 137 135 133 132 131 128 126 122 120 115 113 110 108 107 105 101 100 99 97 95 90 84 78 75 77 82 86 86 85 84 85 83
138 144 150 147 146 144 144 142 140 141 140 140 139 136 135 133 131 128 124 121 119 116 114 113 111 109 105 103 102 100 96 92 85 79 76 78 83 87 89 89 86 84 85
139 142 149 146 145 144 144 144 143 142 142 141 142 141 139 135 133 129 127 124 123 122 120 118 115 113 109 106 106 103 99 95 89 81 77 81 87 90 91 91 88 85 84
139 137 145 146 144 143 144 145 143 143 144 143 144 143 141 136 134 132 132 130 127 124 123 122 120 116 112 110 110 107 103 98 92 84 79 85 93 94 92 89 89 86 86
130 130 135 140 140 141 141 142 144 144 143 142 142 139 136 135 136 137 133 134 132 127 123 122 119 117 115 113 112 111 106 102 96 89 86 93 98 97 94 91 87 86 86
129 130 129 134 136 137 140 141 141 141 142 142 138 134 132 131 131 134 135 133 132 129 125 122 119 117 115 113 113 113 110 105 98 94 94 100 103 100 98 94 89 86 83
145 142 135 132 133 135 138 141 138 138 139 137 134 133 129 125 124 126 133 133 131 129 126 124 121 117 112 110 110 113 110 105 102 98 103 106 106 104 102 98 93 89 86
167 163 150 141 135 134 139 136 134 134 135 132 131 130 127 127 126 125 126 127 125 125 123 122 121 114 112 109 107 110 107 106 106 104 109 110 111 110 106 102 97 93 90
168 163 157 150 141 137 134 135 131 130 129 127 129 129 128 124 121 119 116 116 117 116 113 113 111 108 109 112 110 106 106 108 110 110 115 116 114 113 110 107 102 98 95
167 166 158 153 145 140 138 137 134 133 131 129 133 133 131 125 121 123 120 121 120 120 114 110 111 109 107 110 114 110 106 108 112 113 116 120 120 118 117 114 110 105 100
172 170 165 153 149 142 137 138 139 139 140 137 136 139 141 136 135 128 126 126 127 128 123 115 114 110 105 104 108 110 104 106 114 113 117 118 126 125 121 118 114 107 99
179 175 167 161 151 143 141 141 143 145 142 139 142 146 147 146 143 138 132 129 130 134 131 125 122 117 107 103 97 101 104 110 113 115 118 121 120 116 116 118 110 101 98
180 171 167 164 150 151 150 147 149 150 145 142 148 152 153 150 150 144 139 139 139 139 129 120 112 108 104 98 92 87 91 101 114 115 122 132 128 112 107 111 109 100 93
168 167 166 164 158 156 150 147 151 150 145 146 151 155 157 155 153 147 144 146 143 136 129 123 118 109 106 104 96 81 78 85 88 96 108 119 123 118 100 96 97 96 86
167 165 162 157 160 159 149 141 138 140 142 147 147 153 159 157 157 150 150 147 143 133 128 130 120 118 119 113 101 75 64 60 65 80 84 94 102 102 104 99 92 86 78
161 158 155 151 154 151 140 128 120 116 124 134 140 151 153 156 158 151 148 148 141 132 130 126 120 107 115 116 96 70 51 46 53 59 64 75 86 89 94 95 91 84 73
139 148 154 153 156 152 153 157 157 164 161 143 132 147 151 152 155 151 148 150 148 145 148 141 124 117 104 105 98 67 33 43 54 48 50 61 65 73 78 80 82 80 63
153 160 158 162 161 160 162 163 157 151 149 137 118 137 152 152 155 156 152 156 155 145 142 144 134 127 117 120 126 120 73 11 18 33 45 58 53 67 66 61 64 68 54
166 175 174 172 165 161 150 136 118 99 91 107 135 155 157 162 162 160 163 155 154 154 161 162 155 147 152 139 103 136 151 199 301 11 30 34 32 52 55 57 61 57 52
199 188 177 171 165 161 152 152 151 153 156 176 169 162 139 157 160 162 161 161 159 157 164 168 162 155 151 160 122 77 103 133 142 34 356 14 27 31 33 49 50 48 52
201 189 182 166 162 162 162 163 162 156 158 143 133 144 151 144 158 163 159 157 159 159 162 161 160 158 159 161 157 140 113 82 102 152 226 322 359 359 17 35 38 27 30
189 178 172 163 166 166 168 168 168 163 154 143 146 160 164 158 157 164 161 157 160 160 164 168 167 167 170 161 155 151 149 152 168 162 189 219 265 313 348 26 25 9 8
Height
1510 1514 1517 1520 1523 1526 1528 1530 1532 1534 1535 1537 1538 1539 1541 1542 1543 1544 1545 1546 1547 1548 1549 1550 1551 1552 1552 1553 1553 1554 1554 1555 1555 1556 1556 1557 1557 1557 1557 1558 1558 1558 1558
1509 1513 1517 1520 1523 1526 1528 1530 1532 1534 1536 1537 1539 1540 1542 1543 1544 1545 1546 1548 1549 1550 1551 1552 1552 1553 1554 1555 1555 1556 1556 1557 1558 1558 1558 1559 1559 1559 1560 1560 1560 1560 1560
1508 1512 1516 1520 1523 1526 1528 1530 1533 1535 1536 1538 1540 1541 1543 1544 1545 1546 1548 1549 1550 1551 1552 1553 1554 1555 1556 1557 1557 1558 1559 1559 1560 1560 1561 1561 1561 1562 1562 1562 1562 1562 1562
1509 1512 1516 1519 1523 1525 1528 1531 1533 1535 1537 1539 1540 1542 1544 1545 1546 1547 1549 1550 1551 1552 1554 1555 1556 1557 1558 1558 1559 1560 1560 1561 1562 1562 1563 1563 1564 1564 1564 1565 1565 1565 1565
1509 1512 1516 1519 1522 1525 1528 1530 1533 1535 1537 1539 1541 1542 1544 1546 1547 1548 1550 1551 1552 1554 1555 1556 1557 1558 1559 1560 1561 1562 1562 1563 1564 1564 1565 1565 1566 1566 1566 1567 1567 1567 1567
1509 1512 1516 1519 1522 1525 1528 1531 1533 1535 1537 1539 1541 1543 1545 1546 1548 1549 1551 1552 1553 1555 1556 1557 1558 1559 1560 1561 1562 1563 1564 1565 1565 1566 1567 1567 1568 1568 1568 1569 1569 1569 1569
1508 1512 1516 1519 1522 1525 1528 1530 1533 1535 1537 1539 1541 1543 1545 1546 1548 1550 1551 1553 1554 1556 1557 1558 1559 1561 1562 1563 1564 1565 1565 1566 1567 1568 1568 1569 1569 1570 1570 1571 1571 1571 1571
1509 1512 1516 1519 1522 1525 1527 1530 1532 1535 1537 1539 1541 1543 1545 1547 1548 1550 1552 1553 1555 1556 1558 1559 1560 1562 1563 1564 1565 1566 1567 1568 1569 1569 1570 1571 1571 1572 1572 1572 1573 1573 1573
1510 1512 1516 1519 1522 1524 1527 1529 1532 1534 1537 1539 1541 1543 1545 1547 1549 1550 1552 1554 1555 1557 1558 1560 1561 1562 1564 1565 1566 1567 1568 1569 1570 1571 1571 1572 1572 1573 1573 1574 1574 1574 1575
1510 1513 1515 1518 1521 1524 1526 1529 1531 1534 1536 1538 1541 1543 1544 1547 1548 1550 1552 1554 1556 1557 1559 1560 1562 1563 1565 1566 1567 1568 1569 1570 1571 1572 1572 1573 1574 1574 1575 1575 1576 1576 1576
1509 1512 1515 1517 1520 1523 1526 1528 1531 1533 1536 1538 1540 1542 1544 1546 1548 1550 1552 1554 1556 1558 1559 1561 1562 1564 1566 1567 1568 1569 1570 1571 1572 1573 1574 1574 1575 1575 1576 1576 1576 1577 1577
1507 1510 1513 1516 1519 1522 1525 1527 1530 1532 1535 1537 1539 1541 1543 1545 1548 1550 1552 1554 1556 1558 1559 1561 1563 1564 1566 1567 1569 1570 1571 1572 1573 1574 1575 1575 1576 1576 1577 1577 1577 1578 1578
1505 1508 1512 1515 1518 1521 1523 1526 1528 1531 1533 1536 1538 1540 1542 1545 1547 1549 1551 1553 1556 1557 1559 1561 1563 1565 1566 1568 1569 1570 1572 1573 1574 1575 1575 1576 1577 1577 1578 1578 1578 1578 1579
1504 1507 1510 1513 1516 1519 1522 1524 1527 1529 1532 1534 1537 1539 1541 1543 1546 1548 1550 1553 1555 1557 1559 1561 1563 1565 1566 1568 1569 1571 1572 1573 1574 1575 1576 1577 1578 1578 1579 1579 1579 1579 1579
1502 1505 1508 1511 1514 1517 1520 1523 1525 1528 1530 1533 1535 1538 1540 1542 1545 1547 1549 1552 1554 1556 1558 1560 1562 1564 1566 1568 1569 1571 1572 1574 1575 1576 1576 1577 1578 1579 1579 1579 1579 1580 1580
1500 1504 1507 1509 1512 1515 1518 1521 1524 1527 1529 1532 1534 1537 1539 1541 1544 1546 1548 1551 1553 1555 1557 1560 1562 1563 1565 1567 1569 1570 1572 1573 1575 1576 1576 1577 1578 1579 1579 1580 1580 1580 1580
1498 1501 1504 1508 1510 1514 1517 1519 1522 1525 1528 1530 1533 1535 1538 1540 1543 1545 1547 1550 1552 1554 1556 1558 1561 1563 1564 1566 1568 1570 1571 1573 1574 1575 1576 1577 1578 1579 1579 1580 1580 1580 1580
1496 1499 1502 1506 1509 1512 1515 1518 1521 1523 1526 1529 1531 1534 1536 1539 1541 1544 1546 1548 1550 1552 1555 1557 1559 1561 1563 1565 1567 1569 1570 1572 1573 1574 1575 1576 1577 1578 1579 1579 1580 1580 1580
1494 1497 1500 1503 1506 1510 1513 1516 1519 1522 1524 1527 1530 1532 1535 1537 1540 1542 1545 1547 1549 1551 1553 1555 1557 1560 1562 1564 1566 1568 1569 1571 1572 1573 1575 1576 1576 1577 1578 1579 1579 1579 1579
1491 1495 1498 1501 1504 1508 1511 1514 1517 1519 1522 1525 1527 1530 1533 1535 1538 1540 1543 1545 1547 1549 1551 1554 1556 1558 1561 1563 1565 1566 1568 1570 1571 1572 1573 1574 1575 1576 1577 1578 1578 1578 1578
1489 1492 1495 1498 1502 1505 1507 1510 1513 1516 1519 1522 1525 1528 1531 1533 1536 1538 1541 1543 1545 1548 1550 1552 1554 1557 1559 1561 1563 1565 1567 1568 1569 1570 1572 1573 1574 1574 1575 1576 1577 1577 1577
1486 1489 1492 1496 1499 1502 1505 1508 1512 1515 1517 1520 1523 1526 1529 1531 1534 1536 1539 1541 1543 1545 1548 1550 1552 1554 1557 1559 1561 1563 1565 1567 1567 1568 1570 1571 1572 1573 1573 1574 1575 1575 1575
1484 1487 1490 1493 1496 1499 1503 1506 1509 1512 1515 1518 1520 1524 1527 1529 1532 1534 1537 1539 1541 1543 1545 1548 1550 1552 1554 1557 1559 1561 1562 1563 1565 1566 1567 1568 1569 1570 1571 1572 1573 1573 1573
1482 1485 1488 1491 1494 1497 1500 1503 1505 1508 1510 1514 1518 1521 1524 1527 1529 1532 1534 1536 1538 1541 1543 1545 1548 1550 1552 1554 1556 1558 1560 1561 1563 1564 1565 1566 1567 1568 1569 1570 1571 1571 1571
1480 1483 1486 1488 1491 1494 1497 1500 1503 1506 1509 1512 1515 1519 1522 1524 1527 1529 1532 1533 1535 1538 1540 1543 1545 1547 1549 1551 1553 1555 1557 1559 1560 1561 1562 1564 1565 1566 1567 1567 1568 1569 1569
1477 1480 1482 1485 1488 1491 1494 1497 1500 1503 1506 1509 1512 1515 1518 1521 1524 1526 1529 1531 1533 1535 1537 1540 1542 1544 1546 1548 1550 1552 1554 1555 1557 1559 1560 1561 1562 1563 1564 1565 1565 1566 1566